Weather History for KTZR - September, 2013

Change the Weather History Date:

Tuesday, September 3, 2013

  Actual Average Record
Temperature  
Mean Temperature 60 °F -  
Max Temperature 66 °F 79 °F - (-1)
Min Temperature 51 °F 58 °F - (-1)
Degree Days  
Heating Degree Days 6    
Growing Degree Days 10 (Base 50)    
Moisture  
Dew Point 55 °F    
Average Humidity 84    
Maximum Humidity 98    
Minimum Humidity 64    
Precipitation  
Precipitation 0.00 in - - ()
Sea Level Pressure  
Sea Level Pressure 30.00 in    
Wind  
Wind Speed 6 mph (NNW)    
Max Wind Speed 17 mph    
Max Gust Speed 20 mph    
Visibility 10 miles    
Events      
Averages and records for this station are not official NWS values.
T = Trace of Precipitation, MM = Missing Value Source: NWS Daily Summary

Daily Weather History Graph

Daily Weather History Graph

Search for Another Location

Airport or City:

Trip Planner

Search our weather history database for the weather conditions in past years. The results will help you decide how hot, cold, wet, or windy it might be!

Date:

Astronomy

Sep. 03, 2013 Rise Set
Actual Time 7:02 AM EDT 8:00 PM EDT
Civil Twilight 6:34 AM EDT 8:27 PM EDT
Nautical Twilight 6:02 AM EDT 9:00 PM EDT
Astronomical Twilight 5:27 AM EDT 9:34 PM EDT
Moon 5:15 AM EDT (9/3) 6:47 PM EDT (9/3)
Length of Visible Light 13h 53m
Length of Day
12h 57m
Waning Crescent, 3% of the Moon is Illuminated
Sep 3
Waning Crescent
Sep 5
New
Sep 12
First Quarter
Sep 19
Full
Sep 26
Last Quarter

Hourly Weather History & Observations

Time (EDT) Temp. Dew Point Humidity Pressure Visibility Wind Dir Wind Speed Gust Speed Precip Events Conditions
12:15 AM 66.6 °F 58.1 °F 74% 29.91 in 10.0 mi North 5.8 mph - N/A   Scattered Clouds
12:35 AM 66.2 °F 58.1 °F 75% 29.91 in 10.0 mi North 6.9 mph - N/A   Scattered Clouds
12:55 AM 65.8 °F 57.4 °F 74% 29.92 in 10.0 mi North 6.9 mph - N/A   Clear
1:15 AM 65.5 °F 57.2 °F 75% 29.92 in 10.0 mi North 8.1 mph - N/A   Clear
1:35 AM 64.8 °F 57.2 °F 76% 29.93 in 10.0 mi North 8.1 mph - N/A   Clear
1:55 AM 63.5 °F 57.4 °F 80% 29.94 in 10.0 mi NNW 8.1 mph - N/A   Clear
2:15 AM 62.6 °F 57.2 °F 82% 29.93 in 10.0 mi NW 4.6 mph - N/A   Clear
2:35 AM 60.4 °F 57.2 °F 89% 29.93 in 10.0 mi NW 3.5 mph - N/A   Clear
2:55 AM 60.1 °F 57.2 °F 90% 29.93 in 10.0 mi NW 3.5 mph - N/A   Clear
3:15 AM 59.9 °F 56.7 °F 89% 29.94 in 10.0 mi NW 5.8 mph - N/A   Clear
3:35 AM 59.4 °F 56.5 °F 90% 29.94 in 10.0 mi NW 5.8 mph - N/A   Clear
3:55 AM 59.0 °F 56.1 °F 90% 29.94 in 10.0 mi NW 6.9 mph - N/A   Clear
4:15 AM 58.1 °F 55.6 °F 91% 29.94 in 10.0 mi NW 6.9 mph - N/A   Clear
4:35 AM 57.7 °F 55.6 °F 92% 29.94 in 10.0 mi NW 6.9 mph - N/A   Clear
4:55 AM 57.2 °F 55.0 °F 92% 29.95 in 10.0 mi NW 5.8 mph - N/A   Clear
5:15 AM 56.5 °F 54.7 °F 94% 29.95 in 10.0 mi NW 5.8 mph - N/A   Clear
5:35 AM 55.8 °F 54.5 °F 96% 29.96 in 10.0 mi NW 3.5 mph - N/A   Clear
5:55 AM 55.2 °F 54.0 °F 96% 29.96 in 10.0 mi NW 4.6 mph - N/A   Clear
6:15 AM 54.7 °F 53.8 °F 97% 29.97 in 10.0 mi NW 5.8 mph - N/A   Clear
6:35 AM 54.9 °F 53.8 °F 96% 29.97 in 10.0 mi NW 6.9 mph - N/A   Clear
6:55 AM 54.9 °F 53.2 °F 94% 29.98 in 10.0 mi NNW 8.1 mph - N/A   Clear
7:15 AM 54.7 °F 52.7 °F 93% 29.98 in 10.0 mi NNW 6.9 mph - N/A   Clear
7:20 AM 55.4 °F 53.6 °F 94% 29.98 in 10.0 mi NNW 8.1 mph - N/A   Clear
7:50 AM 57.2 °F 53.6 °F 88% 29.99 in 10.0 mi NNW 8.1 mph - N/A   Clear
8:50 AM 59.0 °F 51.8 °F 77% 30.02 in 10.0 mi NNW 11.5 mph - N/A   Clear
9:50 AM 62.6 °F 51.8 °F 68% 30.03 in 10.0 mi NNW 17.3 mph - N/A   Scattered Clouds
10:50 AM 64.4 °F 51.8 °F 64% 30.04 in 10.0 mi NNW 13.8 mph - N/A   Scattered Clouds
12:50 PM 64.4 °F 51.8 °F 64% 30.04 in 10.0 mi NW 9.2 mph - N/A   Overcast
2:50 PM 64.4 °F 53.6 °F 68% 30.04 in 10.0 mi North 8.1 mph - N/A   Overcast
3:47 PM 64.4 °F 53.6 °F 68% 30.05 in 10.0 mi NW 11.5 mph 19.6 mph N/A   Overcast
4:47 PM 66.2 °F 55.4 °F 68% 30.04 in 10.0 mi NW 9.2 mph - N/A   Overcast
5:35 PM 64.4 °F 53.6 °F 68% 30.04 in 10.0 mi North 9.2 mph - N/A   Scattered Clouds
5:47 PM 64.4 °F 53.6 °F 68% 30.04 in 10.0 mi NNW 3.5 mph - N/A   Scattered Clouds
6:47 PM 66.2 °F 55.4 °F 68% 30.04 in 10.0 mi NNW 8.1 mph - N/A   Scattered Clouds
7:35 PM 63.7 °F 55.0 °F 73% 30.04 in 10.0 mi NE 3.5 mph - N/A   Clear
7:55 PM 62.1 °F 55.2 °F 78% 30.04 in 10.0 mi ENE 3.5 mph - N/A   Clear
8:15 PM 61.5 °F 54.5 °F 78% 30.04 in 10.0 mi ENE 3.5 mph - N/A   Clear
8:35 PM 60.4 °F 54.5 °F 81% 30.05 in 10.0 mi ENE 3.5 mph - N/A   Clear
8:55 PM 57.6 °F 54.5 °F 90% 30.05 in 10.0 mi Calm Calm - N/A   Clear
9:15 PM 58.8 °F 54.0 °F 84% 30.06 in 10.0 mi Calm Calm - N/A   Clear
9:35 PM 57.6 °F 53.8 °F 87% 30.06 in 10.0 mi Calm Calm - N/A   Clear
9:55 PM 55.9 °F 54.0 °F 93% 30.07 in 10.0 mi Calm Calm - N/A   Clear
10:15 PM 54.9 °F 53.4 °F 95% 30.07 in 10.0 mi Calm Calm - N/A   Clear
10:35 PM 54.7 °F 53.2 °F 95% 30.07 in 10.0 mi Calm Calm - N/A   Clear
10:55 PM 54.3 °F 52.9 °F 95% 30.08 in 10.0 mi Calm Calm - N/A   Clear
11:15 PM 54.5 °F 53.6 °F 97% 30.08 in 10.0 mi Calm Calm - N/A   Clear
11:35 PM 53.2 °F 52.2 °F 96% 30.08 in 10.0 mi Calm Calm - N/A   Clear
11:55 PM 51.4 °F 50.9 °F 98% 30.08 in 10.0 mi South 3.5 mph - N/A   Clear